Station DBLN6 - Dunkirk, NY Image indicating link to RSS feed of recent meteorological observations for station DBLN6


Conditions at DBLN6 as of
(5:00 am EDT)
0900 GMT on 07/23/2024:
     

Click on the graph icon in the table below to see a time series plot of the last five days of that observation.

5-day plot - Wind Direction Wind Direction (WDIR): S ( 170 deg true )
5-day plot - Wind Speed Wind Speed (WSPD): 5 kts
5-day plot - Wind Gust Wind Gust (GST): 6 kts
5-day plot - Atmospheric Pressure Atmospheric Pressure (PRES):30.00 in
5-day plot - Pressure Tendency Pressure Tendency (PTDY):+0.00 in ( Steady )
5-day plot - Air Temperature Air Temperature (ATMP): 68.9 °F
5-day plot - Wind Speed at 10 Meters Wind Speed at 10 meters (WSPD10M): 4 kts
5-day plot - Wind Speed at 20 Meters Wind Speed at 20 meters (WSPD20M): 6 kts
5-day plot -  Wind Speed, Wind Gust and Atmospheric Pressure Combined plot of Wind Speed, Gust, and Air Pressure
Continuous Winds
TIME
(EDT)
5-day plot - Wind Direction WDIR 5-day plot - Wind Speed WSPD
5:00 amSSE ( 168 deg ) 5 kts
4:50 amSSE ( 165 deg ) 6 kts
4:40 amS ( 169 deg ) 5 kts
4:30 amSSE ( 163 deg ) 6 kts
4:20 amSSE ( 160 deg ) 6 kts
4:10 amSSE ( 164 deg ) 6 kts
 
Peak gust during the measurement hour
TIME
(EDT)
5-day plot - Gust Direction GDR 5-day plot - Gust Speed GST
4:33 amS ( 170 deg ) 8 kts
Previous observations
TIME
(EDT)
5-day plot - Wind Direction
WDIR
 
5-day plot - Wind Speed
WSPD
kts
5-day plot - Wind Gust
GST
kts
5-day plot - Wave Height
WVHT
ft
5-day plot - Dominant Wave Period
DPD
sec
5-day plot - Average Wave Period
APD
sec
5-day plot - Mean Wave Direction
MWD
 
5-day plot - Atmospheric Pressure
PRES
in
5-day plot - Pressure Tendency
PTDY
in
5-day plot - Air Temperature
ATMP
°F
5-day plot - Water Temperature
WTMP
°F
5-day plot - Dew Point
DEWP
°F
5-day plot - Salinity
SAL
psu
5-day plot - Visibility
VIS
nmi
5-day plot - Tide (above MLLW)
TIDE
ft
2024-07-23 04:00 amSSE 6 7----29.99-0.01 68.7-----
2024-07-23 03:00 am S 4 5----30.00+0.01 68.9-----
2024-07-23 02:00 am S 4 6----30.00+0.01 69.6-----
2024-07-23 01:00 amSSE 5 7----30.00+0.01 70.5-----
2024-07-23 12:00 am S 4 7----29.99+0.01 71.4-----
2024-07-22 11:00 pm S 4 6----29.98+0.02 71.4-----
2024-07-22 10:00 pmSSE 4 5----29.98+0.02 71.4-----
2024-07-22 09:00 pm SW 4 4----29.97+0.01 73.0-----
2024-07-22 08:00 pm S 3 4----29.96+0.00 73.9-----
2024-07-22 07:00 pmWSW 5 6----29.96-0.01 75.4-----
2024-07-22 06:00 pm W 5 6----29.96-0.03 75.4-----
2024-07-22 05:00 pmWNW 3 4----29.97-0.03 75.9-----
2024-07-22 04:00 pm NW 3 4----29.98-0.03 76.5-----
2024-07-22 03:00 pm N 3 3----29.99-0.03 75.7-----
2024-07-22 02:00 pm N 6 7----30.00-0.03 74.7-----
2024-07-22 01:00 pm N 7 7----30.01-0.02 73.9-----
2024-07-22 12:00 pm N 8 8----30.02-0.02 73.8-----
2024-07-22 11:00 am N 6 7----30.03+0.00 73.4-----
2024-07-22 10:00 am N 5 6----30.03-0.01 74.1-----
2024-07-22 09:00 am SE 2 3----30.04+0.00 75.4-----
2024-07-22 08:00 am SE 4 4----30.04+0.00 71.2-----
2024-07-22 07:00 amSSE 7 8----30.04-0.01 66.9-----
2024-07-22 06:00 amSSE 7 7----30.03-0.03 66.7-----
2024-07-22 05:00 amSSE 7 7----30.04-0.03 67.1-----